Regional Weather Roundup
Issued by NWS Sterling, VA

Home | Current Version | Previous Version | Text Only | Print | Product List | Glossary On
Versions: 1 2 3 4 5 6 7 8 9 10 11 12 13 14 15 16 17 18 19 20 21 22 23 24 25 26 27 28 29 30 31 32 33 34 35 36 37 38 39 40 41 42 43 44 45 46 47 48 49 50
452
ASUS41 KLWX 171311
RWRLWX

REGIONAL WEATHER ROUNDUP
NATIONAL WEATHER SERVICE BALTIMORE MD/WASHINGTON DC
900 AM EDT THU AUG 17 2017

Note: "FAIR" indicates few or no clouds below 12,000 feet
with no significant weather and/or obstructions to visibility.
 TC=TEMPERATURE CELSIUS

 * =Non NWS site. Station does not report precipitation (e.g. rain,
    snow, etc.), thunder, or fog.

DCZ001-MDZ009-015-VAZ040>042-051-053>054-171400-
WASHINGTON METRO

CITY           SKY/WX    TMP DP  RH WIND       PRES   REMARKS
WASHINGTON NAT MOSUNNY   80  74  81 S6        30.04R
DULLES         PTSUNNY   77  73  87 CALM      30.04S
ANDREWS AFB    SUNNY     77  72  83 CALM      30.03S
FT BELVOIR     SUNNY     80  72  78 CALM      30.03S
QUANTICO       PTSUNNY   80  76  87 S9        30.04S
COLLEGE PARK*  PTSUNNY   77  73  86 CALM      30.03S
LEESBURG*      SUNNY     75  72  88 CALM      30.06S
MANASSAS*      SUNNY     77  72  84 S5        30.04S
GAITHERSBURG*  PTSUNNY   74  72  93 CALM      30.06S FOG

$$

MDZ006>007-011-014-171400-
BALTIMORE METRO

CITY           SKY/WX    TMP DP  RH WIND       PRES   REMARKS
BWI AIRPORT    CLOUDY    76  75  97 E6        30.04R FOG
MD SCIENCE CTR   N/A     79  71  76 MISG      30.05R
MARTIN STATE   MOSUNNY   77  75  94 NE5       30.05S
ANNAPOLIS      PTSUNNY   81  77  88 CALM      30.03S
FORT MEADE*    MOSUNNY   73  73 100 CALM      30.06S

$$

MDZ012-015-019>023-171400-
MARYLAND EASTERN SHORE

CITY           SKY/WX    TMP DP  RH WIND       PRES   REMARKS
OCEAN CITY     CLOUDY    79  74  84 SW3       30.06R
SALISBURY      CLOUDY    75  75 100 CALM      30.05R
BAY BRIDGE AP* MOSUNNY   82  75  78 S5        30.04S
CAMBRIDGE*     PTSUNNY   77  73  88 CALM      30.04S
EASTON*        MOSUNNY   81  73  78 S6        30.08R

$$

MDZ017>025-171400-
SOUTHERN MARYLAND

CITY           SKY/WX    TMP DP  RH WIND       PRES   REMARKS
PATUXENT RIVER CLOUDY    73  70  90 CALM      30.04F
ST INIGOES     HVY RAIN  72  71  97 SE7       30.04F
LEONARDTOWN*   CLOUDY    72  70  94 SE5       30.06S

$$

MDZ003>005-171400-
NORTH CENTRAL MARYLAND

CITY           SKY/WX    TMP DP  RH WIND       PRES   REMARKS
FREDERICK*     CLOUDY    72  72 100 CALM      30.08S
HAGERSTOWN APT SUNNY     70  64  81 NW7       30.05S
WESTMINSTER*   CLOUDY    75  72  88 SE5       30.06S FOG

$$

MDZ501>502-171400-
WESTERN MARYLAND

CITY           SKY/WX    TMP DP  RH WIND       PRES   REMARKS
OAKLAND*       SUNNY     68  63  83 S3        30.11S
CUMBERLAND*    SUNNY     70  63  78 CALM      30.10F

$$

VAZ025>031-171400-
SHENANDOAH VALLEY

CITY           SKY/WX    TMP DP  RH WIND       PRES   REMARKS
WINCHESTER*    SUNNY     72  66  83 CALM      30.05S
FRONT ROYAL*   CLOUDY    70  70 100 CALM      30.05S VSB 1/2
LURAY*         MOSUNNY   72  70  94 CALM      30.06S
NEW MARKET*    MOSUNNY   72  68  89 CALM      30.06S
STAUNTON*      SUNNY     70  67  89 CALM      30.09S
WAYNESBORO*    SUNNY     73  70  92 CALM      30.08F

$$

WVZ021-048>050-054>055-171400-
EASTERN WEST VIRGINIA PANHANDLE

CITY           SKY/WX    TMP DP  RH WIND       PRES   REMARKS
MARTINSBURG    SUNNY     73  64  73 N5        30.05R
PETERSBURG*    MOSUNNY   69  69  99 CALM      30.07S

$$

VAZ036>039-050-171400-
CENTRAL FOOTHILLS

CITY           SKY/WX    TMP DP  RH WIND       PRES   REMARKS
CHARLOTTESVILL SUNNY     76  71  85 CALM      30.05S
CULPEPER*      PTSUNNY   74  74 100 CALM      30.05S
ORANGE*        MOSUNNY   77  72  83 SW3       30.04S
GORDONSVILLE*  MOSUNNY   76  73  89 CALM      30.04S
WARRENTON*     CLOUDY    76  71  84 CALM      30.04

$$

VAZ055>057-171400-
NORTH AND CENTRAL PIEDMONT

CITY           SKY/WX    TMP DP  RH WIND       PRES   REMARKS
FREDERICKSBRG* SUNNY     77  77  99 S3        30.03S
STAFFORD*      SUNNY     77  75  96 CALM      30.08S

$$

NCZ024-NYZ072-PAZ021-071-VAZ022-071-171400-
OTHER REGIONAL OBSERVATIONS

CITY           SKY/WX    TMP DP  RH WIND       PRES   REMARKS
NEW YORK CITY  PTSUNNY   73  56  54 VRB3      30.10F
PHILADELPHIA   MOSUNNY   76  62  62 NE9       30.06S
PITTSBURGH     PTSUNNY   72  65  78 SE5       30.02S
ROANOKE        MOSUNNY   77  70  79 W3        30.10R
RICHMOND       PTSUNNY   76  76 100 SW6       30.05R FOG
RALEIGH        MOSUNNY   83  75  77 SE3       30.05S HX  90

$$

ANZ530>537-171400-
MARINE OBSERVATIONS

STATION/POSITION TIME  TEMP    WIND        PRES
                       AIR SEA DIR/SP/G
                 (UTC) (F)     (DEG/KT/KT) (MB)
THOMAS PT LIGHT  1200   78 80  180/  5/  6   N/A
BALT KEY BRIDGE  1236   76      60/  7/  9 1016.9F
COVE POINT       1236   76     200/  7/  8 1017.8F
LEWISETTA        1236   76 82   10/  8/ 11 1017.5R
SOLOMONS ISLAND  1236   75 81  180/  5/  8   N/A
PINEY POINT      1248           90/  6/  7   N/A

$$





USA.gov is the U.S. government's official web portal to all federal, state and local government web resources and services.